QPF
0.03 0.04 0.03 0.02 0.02 0.02 0.02 0.02 0.02 0.02 0.02 0.01 0.00 0.00 0.01 0.02 0.02 0.03 0.03 0.04 0.07 0.10 0.12 0.12 0.09 0.07 0.09 0.09 0.08 0.07 0.07 0.08 0.07 0.06 0.05 0.05 0.05 0.04 0.04 0.03 0.03 0.04 0.07
0.03 0.01 0.01 0.02 0.02 0.01 0.01 0.01 0.01 0.01 0.01 0.01 0.01 0.01 0.01 0.01 0.01 0.03 0.04 0.07 0.07 0.08 0.10 0.12 0.12 0.11 0.12 0.12 0.11 0.09 0.09 0.09 0.08 0.07 0.05 0.04 0.04 0.03 0.04 0.06 0.06 0.06 0.08
0.02 0.01 0.01 0.01 0.01 0.01 0.01 0.01 0.01 0.00 0.01 0.01 0.01 0.01 0.02 0.03 0.03 0.03 0.04 0.06 0.05 0.03 0.03 0.05 0.08 0.10 0.09 0.09 0.09 0.07 0.07 0.07 0.07 0.07 0.05 0.04 0.03 0.03 0.04 0.05 0.07 0.08 0.08
0.02 0.02 0.02 0.01 0.01 0.02 0.02 0.02 0.01 0.01 0.01 0.01 0.01 0.01 0.03 0.04 0.04 0.03 0.03 0.03 0.02 0.01 0.01 0.01 0.02 0.04 0.05 0.04 0.05 0.04 0.04 0.03 0.03 0.04 0.05 0.04 0.04 0.03 0.04 0.06 0.07 0.07 0.07
0.02 0.03 0.03 0.02 0.02 0.02 0.03 0.03 0.03 0.02 0.01 0.01 0.02 0.02 0.02 0.03 0.03 0.03 0.03 0.02 0.01 0.01 0.01 0.01 0.01 0.01 0.02 0.03 0.04 0.04 0.03 0.03 0.03 0.03 0.03 0.03 0.04 0.04 0.05 0.06 0.07 0.06 0.06
0.02 0.02 0.03 0.02 0.02 0.03 0.04 0.04 0.04 0.03 0.02 0.02 0.01 0.02 0.03 0.03 0.02 0.02 0.02 0.02 0.01 0.01 0.01 0.01 0.01 0.01 0.01 0.02 0.03 0.04 0.04 0.04 0.03 0.02 0.03 0.03 0.03 0.04 0.05 0.05 0.06 0.07 0.07
0.01 0.01 0.02 0.03 0.03 0.04 0.05 0.06 0.06 0.05 0.04 0.03 0.03 0.03 0.03 0.03 0.02 0.02 0.02 0.01 0.01 0.01 0.00 0.00 0.01 0.02 0.02 0.01 0.02 0.03 0.04 0.05 0.04 0.03 0.03 0.03 0.03 0.03 0.04 0.05 0.05 0.06 0.06
0.01 0.01 0.01 0.02 0.02 0.03 0.04 0.05 0.06 0.07 0.06 0.05 0.05 0.06 0.05 0.04 0.02 0.01 0.01 0.00 0.01 0.01 0.01 0.00 0.00 0.01 0.02 0.02 0.01 0.01 0.02 0.04 0.06 0.05 0.05 0.06 0.05 0.04 0.03 0.04 0.04 0.05 0.05
0.02 0.01 0.00 0.01 0.01 0.02 0.03 0.03 0.03 0.04 0.05 0.06 0.06 0.07 0.07 0.05 0.03 0.02 0.01 0.01 0.00 0.01 0.01 0.01 0.01 0.00 0.01 0.01 0.01 0.00 0.00 0.01 0.03 0.05 0.10 0.10 0.06 0.06 0.05 0.04 0.04 0.04 0.04
0.02 0.01 0.01 0.01 0.02 0.01 0.01 0.01 0.02 0.03 0.04 0.06 0.07 0.06 0.05 0.05 0.04 0.02 0.02 0.02 0.01 0.00 0.00 0.00 0.01 0.01 0.01 0.01 0.01 0.00 0.00 0.00 0.01 0.02 0.08 0.13 0.09 0.09 0.06 0.04 0.05 0.04 0.03
0.03 0.02 0.01 0.01 0.02 0.02 0.01 0.02 0.03 0.04 0.04 0.05 0.06 0.06 0.06 0.05 0.04 0.04 0.03 0.02 0.02 0.01 0.01 0.01 0.01 0.01 0.01 0.00 0.01 0.00 0.00 0.00 0.01 0.02 0.04 0.12 0.13 0.09 0.05 0.04 0.04 0.03 0.03
0.03 0.02 0.02 0.02 0.02 0.02 0.01 0.01 0.02 0.03 0.04 0.04 0.05 0.06 0.06 0.05 0.05 0.05 0.04 0.03 0.03 0.02 0.01 0.01 0.01 0.01 0.00 0.00 0.01 0.00 0.00 0.00 0.00 0.01 0.01 0.05 0.08 0.06 0.04 0.04 0.04 0.03 0.03
0.03 0.03 0.02 0.02 0.01 0.02 0.01 0.01 0.01 0.03 0.04 0.03 0.04 0.04 0.04 0.03 0.04 0.06 0.06 0.05 0.04 0.03 0.02 0.01 0.01 0.01 0.01 0.00 0.00 0.01 0.01 0.01 0.00 0.00 0.00 0.01 0.03 0.04 0.04 0.03 0.04 0.05 0.05
0.04 0.04 0.02 0.02 0.01 0.01 0.01 0.01 0.01 0.01 0.02 0.03 0.02 0.02 0.02 0.02 0.02 0.03 0.04 0.05 0.05 0.03 0.03 0.02 0.01 0.01 0.00 0.00 0.00 0.00 0.00 0.01 0.01 0.00 0.00 0.01 0.01 0.02 0.02 0.02 0.03 0.05 0.06
0.03 0.04 0.03 0.03 0.02 0.01 0.01 0.01 0.01 0.01 0.02 0.02 0.02 0.02 0.02 0.02 0.03 0.03 0.03 0.03 0.04 0.04 0.03 0.02 0.02 0.01 0.01 0.00 0.00 0.00 0.01 0.00 0.00 0.00 0.00 0.00 0.01 0.01 0.01 0.01 0.02 0.02 0.04
0.02 0.02 0.02 0.02 0.02 0.02 0.02 0.02 0.02 0.02 0.01 0.02 0.02 0.02 0.02 0.02 0.03 0.03 0.04 0.03 0.04 0.04 0.04 0.03 0.03 0.02 0.01 0.01 0.01 0.00 0.00 0.00 0.00 0.00 0.00 0.00 0.00 0.01 0.01 0.01 0.01 0.02 0.03
0.02 0.02 0.02 0.02 0.02 0.03 0.03 0.03 0.02 0.01 0.01 0.02 0.02 0.02 0.01 0.02 0.02 0.03 0.03 0.03 0.04 0.05 0.04 0.04 0.04 0.04 0.03 0.02 0.01 0.00 0.00 0.01 0.01 0.02 0.02 0.01 0.01 0.01 0.01 0.02 0.02 0.03 0.03
0.02 0.02 0.03 0.04 0.03 0.02 0.04 0.04 0.03 0.03 0.03 0.03 0.03 0.02 0.02 0.02 0.01 0.02 0.02 0.02 0.03 0.04 0.03 0.03 0.03 0.03 0.03 0.03 0.02 0.02 0.01 0.01 0.01 0.02 0.02 0.02 0.02 0.02 0.01 0.02 0.03 0.03 0.04
0.02 0.03 0.02 0.03 0.03 0.03 0.03 0.05 0.05 0.05 0.04 0.04 0.04 0.03 0.02 0.02 0.01 0.02 0.02 0.03 0.03 0.03 0.02 0.02 0.02 0.03 0.03 0.03 0.03 0.02 0.02 0.02 0.01 0.01 0.01 0.01 0.01 0.02 0.02 0.02 0.02 0.03 0.03
0.02 0.02 0.02 0.02 0.03 0.03 0.04 0.05 0.06 0.05 0.05 0.04 0.05 0.04 0.03 0.02 0.01 0.03 0.02 0.02 0.02 0.03 0.03 0.02 0.02 0.02 0.02 0.02 0.02 0.02 0.02 0.02 0.02 0.01 0.01 0.01 0.01 0.01 0.01 0.01 0.02 0.02 0.02
0.02 0.02 0.02 0.02 0.03 0.03 0.03 0.03 0.04 0.04 0.05 0.06 0.07 0.05 0.03 0.02 0.02 0.03 0.02 0.02 0.02 0.03 0.03 0.02 0.02 0.02 0.02 0.02 0.02 0.01 0.02 0.02 0.02 0.02 0.02 0.02 0.01 0.01 0.01 0.01 0.01 0.01 0.01
0.02 0.02 0.02 0.02 0.02 0.02 0.03 0.02 0.02 0.03 0.04 0.06 0.06 0.05 0.03 0.02 0.03 0.03 0.03 0.03 0.04 0.03 0.03 0.03 0.02 0.02 0.02 0.02 0.02 0.02 0.02 0.02 0.02 0.02 0.02 0.02 0.02 0.02 0.02 0.01 0.01 0.01 0.01
0.02 0.02 0.01 0.02 0.02 0.02 0.02 0.02 0.01 0.02 0.03 0.04 0.04 0.05 0.04 0.02 0.02 0.02 0.02 0.03 0.04 0.04 0.04 0.04 0.03 0.02 0.02 0.01 0.01 0.01 0.01 0.01 0.01 0.02 0.02 0.02 0.02 0.02 0.02 0.02 0.01 0.01 0.01
0.02 0.02 0.02 0.02 0.02 0.02 0.02 0.01 0.02 0.02 0.03 0.04 0.04 0.05 0.05 0.03 0.03 0.04 0.03 0.02 0.02 0.03 0.03 0.03 0.02 0.02 0.02 0.02 0.01 0.01 0.01 0.01 0.01 0.01 0.01 0.01 0.01 0.01 0.01 0.01 0.01 0.01 0.00
0.02 0.02 0.02 0.01 0.01 0.02 0.01 0.01 0.01 0.02 0.03 0.04 0.05 0.06 0.06 0.05 0.05 0.07 0.05 0.03 0.03 0.03 0.03 0.03 0.03 0.02 0.01 0.01 0.01 0.01 0.01 0.01 0.01 0.00 0.01 0.01 0.00 0.00 0.00 0.00 0.00 0.00 0.00
0.04 0.03 0.02 0.01 0.02 0.02 0.02 0.01 0.00 0.01 0.02 0.04 0.04 0.04 0.04 0.03 0.03 0.04 0.04 0.04 0.03 0.02 0.02 0.02 0.03 0.03 0.03 0.02 0.02 0.01 0.01 0.01 0.01 0.01 0.00 0.01 0.01 0.01 0.00 0.00 0.01 0.01 0.01
MSLP
1015.02 1015.37 1015.68 1015.96 1016.21 1016.45 1016.68 1016.93 1017.20 1017.48 1017.78 1018.09 1018.40 1018.70 1018.99 1019.25 1019.49 1019.71 1019.90 1020.07 1020.22 1020.35 1020.48 1020.61 1020.75 1020.90 1021.06 1021.22 1021.36 1021.47 1021.54 1021.55 1021.50 1021.42 1021.29 1021.15 1021.02 1020.88 1020.75 1020.62 1020.47 1020.29 1020.07
1015.07 1015.48 1015.88 1016.23 1016.55 1016.85 1017.13 1017.41 1017.71 1018.04 1018.39 1018.76 1019.13 1019.49 1019.83 1020.12 1020.38 1020.59 1020.75 1020.88 1020.99 1021.09 1021.19 1021.30 1021.43 1021.57 1021.71 1021.85 1021.96 1022.04 1022.07 1022.05 1021.97 1021.86 1021.72 1021.57 1021.42 1021.27 1021.13 1021.00 1020.85 1020.68 1020.48
1015.03 1015.52 1016.00 1016.45 1016.86 1017.23 1017.57 1017.90 1018.24 1018.61 1019.01 1019.43 1019.86 1020.27 1020.66 1020.99 1021.26 1021.46 1021.60 1021.69 1021.75 1021.81 1021.87 1021.95 1022.06 1022.18 1022.31 1022.43 1022.53 1022.59 1022.59 1022.55 1022.45 1022.33 1022.18 1022.02 1021.87 1021.71 1021.57 1021.42 1021.27 1021.10 1020.92
1014.95 1015.51 1016.09 1016.63 1017.14 1017.58 1017.99 1018.37 1018.75 1019.15 1019.59 1020.05 1020.53 1021.00 1021.43 1021.80 1022.09 1022.29 1022.41 1022.47 1022.49 1022.50 1022.53 1022.58 1022.66 1022.77 1022.88 1022.99 1023.07 1023.11 1023.11 1023.05 1022.96 1022.83 1022.68 1022.53 1022.37 1022.22 1022.06 1021.91 1021.74 1021.57 1021.39
1014.86 1015.49 1016.15 1016.78 1017.37 1017.89 1018.36 1018.78 1019.19 1019.62 1020.08 1020.57 1021.09 1021.61 1022.08 1022.50 1022.81 1023.03 1023.15 1023.19 1023.19 1023.18 1023.17 1023.19 1023.25 1023.34 1023.44 1023.53 1023.61 1023.64 1023.63 1023.58 1023.49 1023.37 1023.23 1023.09 1022.93 1022.78 1022.61 1022.44 1022.27 1022.08 1021.89
1014.80 1015.48 1016.20 1016.91 1017.56 1018.14 1018.65 1019.10 1019.52 1019.96 1020.43 1020.94 1021.49 1022.05 1022.57 1023.03 1023.40 1023.65 1023.80 1023.85 1023.85 1023.82 1023.80 1023.81 1023.85 1023.92 1024.01 1024.09 1024.16 1024.19 1024.18 1024.13 1024.05 1023.94 1023.82 1023.68 1023.53 1023.38 1023.21 1023.02 1022.83 1022.63 1022.42
1014.79 1015.49 1016.25 1017.00 1017.70 1018.32 1018.85 1019.30 1019.72 1020.15 1020.62 1021.13 1021.70 1022.29 1022.87 1023.39 1023.81 1024.13 1024.32 1024.42 1024.45 1024.44 1024.43 1024.43 1024.46 1024.52 1024.60 1024.68 1024.73 1024.76 1024.75 1024.70 1024.63 1024.53 1024.42 1024.29 1024.15 1024.00 1023.82 1023.63 1023.42 1023.20 1022.98
1014.82 1015.53 1016.30 1017.08 1017.80 1018.42 1018.95 1019.39 1019.79 1020.19 1020.64 1021.15 1021.72 1022.34 1022.96 1023.54 1024.05 1024.44 1024.71 1024.88 1024.97 1025.00 1025.02 1025.04 1025.08 1025.14 1025.21 1025.28 1025.32 1025.34 1025.33 1025.28 1025.21 1025.12 1025.02 1024.91 1024.78 1024.62 1024.45 1024.25 1024.03 1023.80 1023.56
1014.87 1015.57 1016.35 1017.12 1017.83 1018.45 1018.96 1019.38 1019.74 1020.11 1020.52 1021.00 1021.57 1022.21 1022.87 1023.51 1024.09 1024.57 1024.93 1025.19 1025.36 1025.47 1025.54 1025.60 1025.67 1025.74 1025.81 1025.87 1025.91 1025.92 1025.90 1025.85 1025.78 1025.70 1025.60 1025.50 1025.38 1025.23 1025.06 1024.86 1024.64 1024.40 1024.15
1014.91 1015.60 1016.36 1017.12 1017.82 1018.42 1018.91 1019.30 1019.63 1019.95 1020.32 1020.78 1021.32 1021.95 1022.63 1023.32 1023.96 1024.52 1024.97 1025.33 1025.59 1025.78 1025.93 1026.05 1026.16 1026.26 1026.35 1026.41 1026.45 1026.45 1026.43 1026.38 1026.31 1026.23 1026.15 1026.05 1025.95 1025.82 1025.65 1025.46 1025.24 1025.00 1024.75
1014.88 1015.56 1016.31 1017.07 1017.76 1018.36 1018.83 1019.20 1019.50 1019.79 1020.12 1020.53 1021.04 1021.64 1022.31 1023.01 1023.69 1024.30 1024.84 1025.27 1025.63 1025.91 1026.14 1026.33 1026.50 1026.64 1026.76 1026.84 1026.89 1026.90 1026.88 1026.83 1026.77 1026.70 1026.63 1026.55 1026.47 1026.35 1026.21 1026.03 1025.81 1025.58 1025.33
1014.78 1015.45 1016.20 1016.96 1017.67 1018.27 1018.76 1019.13 1019.42 1019.68 1019.97 1020.33 1020.78 1021.34 1021.97 1022.64 1023.32 1023.96 1024.54 1025.04 1025.47 1025.83 1026.14 1026.41 1026.65 1026.85 1027.01 1027.13 1027.20 1027.23 1027.22 1027.19 1027.14 1027.09 1027.04 1026.98 1026.92 1026.83 1026.71 1026.55 1026.36 1026.13 1025.88
1014.57 1015.25 1016.02 1016.81 1017.54 1018.18 1018.70 1019.10 1019.40 1019.65 1019.90 1020.21 1020.61 1021.09 1021.65 1022.27 1022.90 1023.53 1024.12 1024.65 1025.13 1025.56 1025.95 1026.30 1026.61 1026.87 1027.09 1027.26 1027.37 1027.43 1027.44 1027.43 1027.40 1027.38 1027.35 1027.33 1027.29 1027.24 1027.15 1027.02 1026.84 1026.62 1026.38
1014.28 1014.98 1015.78 1016.60 1017.39 1018.09 1018.66 1019.11 1019.44 1019.70 1019.94 1020.21 1020.53 1020.93 1021.40 1021.93 1022.50 1023.07 1023.64 1024.17 1024.68 1025.15 1025.60 1026.02 1026.39 1026.73 1027.01 1027.23 1027.39 1027.49 1027.54 1027.56 1027.56 1027.56 1027.56 1027.57 1027.57 1027.55 1027.50 1027.40 1027.25 1027.05 1026.81
1013.95 1014.66 1015.49 1016.36 1017.21 1017.98 1018.63 1019.14 1019.53 1019.82 1020.05 1020.28 1020.54 1020.86 1021.23 1021.67 1022.14 1022.65 1023.16 1023.68 1024.18 1024.68 1025.17 1025.64 1026.08 1026.47 1026.82 1027.09 1027.30 1027.44 1027.53 1027.58 1027.61 1027.63 1027.67 1027.70 1027.74 1027.75 1027.74 1027.67 1027.55 1027.38 1027.16
1013.62 1014.34 1015.19 1016.10 1017.01 1017.84 1018.57 1019.15 1019.60 1019.93 1020.18 1020.39 1020.61 1020.85 1021.14 1021.48 1021.87 1022.30 1022.76 1023.24 1023.73 1024.24 1024.75 1025.25 1025.74 1026.18 1026.57 1026.89 1027.14 1027.32 1027.44 1027.51 1027.57 1027.61 1027.67 1027.72 1027.78 1027.83 1027.85 1027.82 1027.74 1027.60 1027.41
1013.37 1014.08 1014.92 1015.85 1016.79 1017.67 1018.45 1019.10 1019.61 1019.98 1020.26 1020.48 1020.67 1020.87 1021.11 1021.39 1021.71 1022.07 1022.48 1022.93 1023.40 1023.90 1024.42 1024.94 1025.45 1025.92 1026.34 1026.69 1026.97 1027.17 1027.31 1027.40 1027.46 1027.52 1027.58 1027.65 1027.72 1027.79 1027.83 1027.84 1027.80 1027.70 1027.54
1013.24 1013.91 1014.73 1015.63 1016.56 1017.46 1018.27 1018.95 1019.51 1019.93 1020.24 1020.48 1020.69 1020.88 1021.10 1021.35 1021.64 1021.97 1022.35 1022.77 1023.23 1023.72 1024.23 1024.75 1025.26 1025.74 1026.17 1026.53 1026.82 1027.03 1027.17 1027.27 1027.33 1027.38 1027.44 1027.50 1027.58 1027.65 1027.71 1027.74 1027.73 1027.67 1027.56
1013.26 1013.88 1014.63 1015.47 1016.36 1017.22 1018.02 1018.72 1019.29 1019.75 1020.10 1020.38 1020.63 1020.85 1021.09 1021.35 1021.65 1021.98 1022.35 1022.77 1023.22 1023.70 1024.20 1024.70 1025.20 1025.67 1026.09 1026.44 1026.72 1026.92 1027.06 1027.15 1027.20 1027.24 1027.28 1027.33 1027.40 1027.46 1027.53 1027.57 1027.58 1027.56 1027.48
1013.45 1013.98 1014.64 1015.40 1016.19 1016.99 1017.74 1018.41 1018.99 1019.47 1019.86 1020.20 1020.50 1020.78 1021.07 1021.38 1021.71 1022.08 1022.47 1022.89 1023.34 1023.81 1024.29 1024.78 1025.25 1025.69 1026.08 1026.41 1026.67 1026.87 1026.99 1027.07 1027.11 1027.14 1027.16 1027.19 1027.23 1027.28 1027.33 1027.36 1027.38 1027.38 1027.33
1013.76 1014.21 1014.77 1015.41 1016.10 1016.80 1017.47 1018.09 1018.65 1019.14 1019.57 1019.96 1020.33 1020.69 1021.05 1021.43 1021.82 1022.23 1022.66 1023.10 1023.55 1024.01 1024.47 1024.93 1025.36 1025.77 1026.13 1026.43 1026.67 1026.85 1026.97 1027.04 1027.08 1027.09 1027.10 1027.11 1027.12 1027.14 1027.17 1027.18 1027.19 1027.18 1027.15
1014.15 1014.52 1014.97 1015.50 1016.07 1016.67 1017.26 1017.82 1018.35 1018.85 1019.31 1019.75 1020.18 1020.62 1021.06 1021.51 1021.96 1022.43 1022.89 1023.35 1023.80 1024.25 1024.68 1025.10 1025.49 1025.86 1026.19 1026.46 1026.69 1026.86 1026.99 1027.06 1027.11 1027.12 1027.13 1027.12 1027.11 1027.10 1027.09 1027.07 1027.04 1027.01 1026.97
1014.53 1014.85 1015.22 1015.65 1016.12 1016.62 1017.14 1017.65 1018.15 1018.64 1019.13 1019.61 1020.11 1020.60 1021.11 1021.62 1022.13 1022.63 1023.12 1023.59 1024.04 1024.46 1024.87 1025.25 1025.61 1025.93 1026.23 1026.49 1026.71 1026.88 1027.02 1027.12 1027.18 1027.21 1027.23 1027.22 1027.20 1027.16 1027.11 1027.05 1026.98 1026.90 1026.83
1014.85 1015.14 1015.46 1015.83 1016.23 1016.67 1017.12 1017.60 1018.08 1018.58 1019.09 1019.61 1020.14 1020.69 1021.24 1021.79 1022.33 1022.84 1023.33 1023.80 1024.23 1024.63 1025.00 1025.34 1025.66 1025.96 1026.23 1026.48 1026.69 1026.88 1027.04 1027.17 1027.27 1027.33 1027.37 1027.37 1027.35 1027.30 1027.22 1027.12 1027.00 1026.88 1026.76
1015.05 1015.34 1015.65 1015.99 1016.36 1016.77 1017.20 1017.67 1018.15 1018.66 1019.20 1019.74 1020.31 1020.87 1021.44 1022.00 1022.54 1023.05 1023.52 1023.96 1024.36 1024.73 1025.07 1025.38 1025.67 1025.93 1026.19 1026.42 1026.64 1026.84 1027.03 1027.19 1027.32 1027.43 1027.50 1027.53 1027.53 1027.48 1027.38 1027.25 1027.10 1026.93 1026.76
1015.10 1015.43 1015.75 1016.10 1016.48 1016.89 1017.33 1017.81 1018.32 1018.86 1019.41 1019.98 1020.56 1021.13 1021.70 1022.24 1022.75 1023.23 1023.67 1024.08 1024.44 1024.78 1025.08 1025.36 1025.62 1025.86 1026.10 1026.32 1026.54 1026.75 1026.95 1027.14 1027.31 1027.45 1027.57 1027.64 1027.66 1027.63 1027.54 1027.41 1027.23 1027.04 1026.84
Thickness
5736 5735 5733 5733 5733 5732 5732 5731 5730 5730 5729 5728 5728 5727 5726 5726 5724 5722 5721 5720 5719 5718 5718 5718 5717 5716 5715 5715 5714 5714 5713 5713 5713 5713 5713 5713 5714 5715 5716 5717 5717 5717 5718
5733 5731 5730 5729 5729 5728 5728 5727 5726 5725 5724 5723 5722 5722 5721 5721 5720 5719 5717 5715 5714 5714 5714 5713 5713 5712 5711 5711 5710 5710 5709 5709 5709 5709 5709 5710 5710 5711 5713 5714 5715 5714 5714
5729 5727 5726 5724 5724 5724 5723 5722 5722 5721 5720 5719 5717 5717 5716 5716 5715 5714 5712 5711 5710 5709 5709 5708 5708 5708 5708 5707 5707 5707 5706 5705 5705 5705 5705 5705 5706 5707 5708 5710 5710 5710 5710
5725 5723 5721 5720 5720 5719 5718 5716 5715 5714 5713 5713 5712 5712 5711 5711 5711 5710 5709 5707 5706 5705 5704 5704 5703 5704 5704 5703 5703 5703 5702 5702 5701 5701 5701 5700 5701 5702 5703 5704 5705 5705 5704
5720 5718 5717 5716 5715 5714 5713 5712 5710 5708 5707 5707 5707 5707 5707 5706 5706 5706 5705 5703 5702 5701 5700 5699 5699 5699 5699 5699 5698 5698 5698 5698 5697 5697 5696 5696 5696 5696 5697 5698 5698 5699 5699
5715 5714 5712 5711 5710 5708 5706 5705 5704 5703 5703 5703 5704 5702 5702 5702 5702 5701 5700 5699 5698 5697 5696 5695 5694 5694 5693 5693 5693 5693 5693 5693 5693 5692 5692 5691 5691 5691 5691 5692 5692 5692 5693
5710 5709 5708 5706 5705 5702 5701 5700 5698 5697 5697 5698 5695 5693 5695 5697 5696 5696 5696 5695 5694 5693 5692 5691 5690 5689 5689 5688 5688 5688 5688 5688 5688 5688 5687 5687 5687 5687 5686 5686 5686 5687 5687
5706 5704 5703 5701 5699 5697 5696 5695 5693 5691 5691 5693 5689 5685 5681 5683 5687 5691 5690 5689 5688 5688 5687 5687 5686 5685 5684 5683 5682 5683 5683 5683 5683 5683 5682 5682 5682 5682 5682 5681 5681 5681 5681
5701 5700 5698 5697 5695 5693 5690 5690 5689 5688 5685 5686 5688 5683 5677 5672 5675 5680 5682 5683 5683 5682 5682 5682 5681 5680 5679 5678 5677 5676 5676 5676 5677 5677 5677 5677 5678 5678 5677 5676 5676 5676 5676
5696 5695 5694 5692 5691 5689 5687 5687 5687 5685 5683 5680 5682 5683 5682 5678 5671 5669 5673 5676 5677 5677 5677 5677 5676 5675 5674 5673 5671 5671 5671 5670 5670 5671 5672 5672 5673 5673 5672 5672 5671 5672 5671
5692 5691 5690 5688 5687 5685 5684 5684 5683 5681 5680 5678 5676 5676 5677 5676 5674 5668 5664 5666 5669 5671 5671 5671 5670 5669 5668 5667 5666 5665 5665 5665 5664 5665 5665 5666 5667 5667 5666 5666 5667 5667 5667
5687 5686 5686 5684 5683 5681 5680 5680 5679 5678 5676 5675 5674 5673 5671 5669 5667 5666 5662 5661 5660 5663 5665 5665 5664 5663 5662 5662 5661 5660 5659 5659 5658 5658 5659 5659 5659 5660 5660 5661 5661 5662 5662
5681 5681 5681 5680 5678 5678 5677 5676 5675 5674 5673 5671 5670 5669 5669 5668 5667 5665 5661 5657 5656 5657 5659 5659 5659 5658 5657 5656 5655 5655 5654 5653 5653 5652 5652 5652 5653 5653 5654 5655 5656 5656 5657
5678 5678 5677 5676 5675 5674 5673 5672 5670 5670 5669 5668 5667 5666 5665 5665 5664 5662 5658 5654 5650 5650 5651 5651 5653 5653 5653 5651 5650 5650 5648 5648 5647 5647 5646 5646 5646 5647 5647 5648 5649 5650 5651
5676 5675 5674 5672 5671 5670 5668 5667 5665 5665 5665 5664 5663 5662 5661 5661 5661 5660 5658 5654 5648 5642 5642 5645 5646 5648 5647 5646 5645 5644 5643 5643 5642 5641 5641 5640 5641 5641 5641 5642 5643 5643 5644
5672 5670 5669 5668 5666 5665 5664 5662 5661 5660 5659 5659 5658 5657 5657 5656 5656 5655 5654 5652 5649 5644 5638 5640 5641 5642 5642 5641 5640 5639 5638 5637 5637 5636 5635 5635 5635 5635 5635 5636 5636 5637 5637
5666 5665 5664 5663 5661 5660 5659 5657 5656 5655 5654 5653 5653 5652 5651 5652 5650 5650 5648 5647 5645 5642 5636 5636 5637 5637 5637 5636 5635 5634 5633 5632 5631 5631 5630 5630 5630 5630 5630 5630 5630 5631 5631
5661 5660 5659 5658 5657 5656 5655 5653 5651 5650 5649 5648 5648 5647 5647 5647 5645 5644 5643 5641 5639 5638 5634 5630 5630 5631 5630 5630 5629 5628 5628 5626 5625 5625 5625 5624 5624 5624 5624 5624 5624 5624 5625
5656 5655 5654 5653 5652 5651 5650 5649 5647 5646 5645 5644 5644 5643 5642 5641 5639 5638 5637 5636 5634 5634 5631 5627 5625 5625 5625 5624 5623 5622 5621 5621 5620 5620 5619 5618 5618 5618 5618 5618 5618 5618 5618
5650 5649 5648 5647 5647 5646 5645 5644 5642 5641 5640 5640 5639 5639 5638 5637 5635 5634 5632 5631 5629 5627 5625 5622 5620 5619 5618 5618 5616 5614 5613 5614 5614 5614 5614 5613 5613 5612 5612 5612 5612 5612 5612
5644 5643 5642 5642 5641 5640 5639 5638 5637 5636 5635 5635 5634 5634 5634 5633 5633 5631 5629 5626 5625 5621 5618 5616 5614 5613 5612 5611 5609 5609 5607 5607 5608 5608 5607 5607 5607 5606 5606 5606 5606 5606 5607
5638 5637 5636 5635 5634 5634 5633 5632 5632 5630 5630 5629 5628 5627 5628 5627 5627 5626 5625 5623 5621 5618 5614 5611 5609 5608 5607 5606 5605 5604 5602 5600 5599 5602 5601 5601 5602 5601 5600 5601 5601 5601 5601
5632 5631 5630 5629 5628 5627 5627 5627 5626 5625 5624 5623 5622 5621 5622 5622 5621 5619 5618 5617 5615 5614 5612 5609 5605 5604 5603 5603 5600 5598 5596 5595 5594 5596 5595 5594 5596 5595 5595 5595 5595 5595 5595
5627 5625 5624 5624 5623 5622 5622 5620 5619 5619 5618 5618 5617 5616 5615 5615 5614 5613 5612 5610 5608 5607 5606 5605 5603 5602 5601 5599 5597 5595 5593 5591 5591 5590 5590 5587 5589 5589 5590 5590 5590 5590 5590
5622 5621 5620 5619 5618 5616 5615 5614 5613 5611 5611 5611 5610 5609 5609 5608 5608 5607 5605 5603 5601 5601 5600 5599 5598 5597 5596 5594 5592 5589 5586 5584 5582 5583 5584 5582 5582 5583 5584 5584 5584 5584 5584
5618 5616 5615 5615 5613 5610 5609 5608 5606 5604 5603 5603 5603 5603 5602 5601 5601 5600 5598 5596 5594 5594 5594 5593 5592 5590 5589 5588 5586 5584 5582 5578 5576 5576 5578 5577 5576 5575 5575 5577 5578 5578 5578